Time,TemperatureF,DewpointF,PressureIn,WindDirection,WindDirectionDegrees,WindSpeedMPH,WindSpeedGustMPH,Humidity,HourlyPrecipIn,Conditions,Clouds,dailyrainin,SoftwareType,DateUTC
2013-04-06 00:10:00,58.5,49.5,29.67,SSW,202,7.8,-999.0,72,-99.99,,,0.00,Acu-Link.com,2013-04-06 05:10:00,
2013-04-06 00:41:00,58.5,49.9,29.64,South,180,14.0,-999.0,73,-99.99,,,0.00,Acu-Link.com,2013-04-06 05:41:00,
2013-04-06 01:11:00,56.7,48.1,29.65,South,180,15.0,-999.0,73,-99.99,,,0.00,Acu-Link.com,2013-04-06 06:11:00,
2013-04-06 01:26:00,58.1,49.5,29.66,South,180,11.4,-999.0,73,-99.99,,,0.00,Acu-Link.com,2013-04-06 06:26:00,
2013-04-06 01:41:00,58.1,49.5,29.65,South,180,5.3,-999.0,73,-99.99,,,0.00,Acu-Link.com,2013-04-06 06:41:00,
2013-04-06 02:12:00,58.6,50.3,29.65,South,180,15.0,-999.0,74,-99.99,,,0.00,Acu-Link.com,2013-04-06 07:12:00,
2013-04-06 02:27:00,58.3,50.4,29.64,SSW,202,8.9,-999.0,75,-99.99,,,0.00,Acu-Link.com,2013-04-06 07:27:00,
2013-04-06 02:58:00,57.7,50.5,29.63,South,180,8.9,-999.0,77,-99.99,,,0.00,Acu-Link.com,2013-04-06 07:58:00,
2013-04-06 03:14:00,57.6,50.4,29.63,South,180,10.4,-999.0,77,-99.99,,,0.00,Acu-Link.com,2013-04-06 08:14:00,
2013-04-06 03:29:00,57.7,50.9,29.61,South,180,11.9,-999.0,78,-99.99,,,0.00,Acu-Link.com,2013-04-06 08:29:00,
2013-04-06 03:44:00,57.6,50.8,29.61,South,180,7.8,-999.0,78,-99.99,,,0.00,Acu-Link.com,2013-04-06 08:44:00,
2013-04-06 03:59:00,57.0,50.6,29.61,South,180,6.8,-999.0,79,-99.99,,,0.00,Acu-Link.com,2013-04-06 08:59:00,
2013-04-06 04:15:00,56.8,50.7,29.61,South,180,8.9,-999.0,80,-99.99,,,0.00,Acu-Link.com,2013-04-06 09:15:00,
2013-04-06 04:30:00,56.7,50.6,29.60,South,180,8.3,-999.0,80,-99.99,,,0.00,Acu-Link.com,2013-04-06 09:30:00,
2013-04-06 04:45:00,56.5,50.7,29.61,SSW,202,6.3,-999.0,81,-99.99,,,0.00,Acu-Link.com,2013-04-06 09:45:00,
2013-04-06 05:00:00,56.3,50.9,29.60,SW,225,6.8,-999.0,82,-99.99,,,0.00,Acu-Link.com,2013-04-06 10:00:00,
2013-04-06 05:15:00,55.9,50.5,29.61,South,180,6.8,-999.0,82,-99.99,,,0.00,Acu-Link.com,2013-04-06 10:15:00,
2013-04-06 05:30:00,55.0,50.3,29.59,South,180,9.4,-999.0,84,-99.99,,,0.00,Acu-Link.com,2013-04-06 10:30:00,
2013-04-06 05:45:00,54.7,50.3,29.58,South,180,7.3,-999.0,85,-99.99,,,0.00,Acu-Link.com,2013-04-06 10:45:00,
2013-04-06 06:31:00,54.3,50.5,29.57,SSW,202,6.8,-999.0,87,-99.99,,,0.00,Acu-Link.com,2013-04-06 11:31:00,
2013-04-06 07:02:00,54.7,51.2,29.57,South,180,15.5,-999.0,88,-99.99,,,0.00,Acu-Link.com,2013-04-06 12:02:00,
2013-04-06 07:17:00,54.5,51.3,29.56,SSE,157,10.4,-999.0,89,-99.99,,,0.00,Acu-Link.com,2013-04-06 12:17:00,
2013-04-06 07:33:00,54.3,51.4,29.55,South,180,7.8,-999.0,90,-99.99,,,0.00,Acu-Link.com,2013-04-06 12:33:00,
2013-04-06 07:48:00,54.3,53.7,29.55,South,180,7.8,-999.0,98,-99.99,,,0.00,Acu-Link.com,2013-04-06 12:48:00,
2013-04-06 08:03:00,54.5,53.9,29.56,South,180,8.3,-999.0,98,-99.99,,,0.00,Acu-Link.com,2013-04-06 13:03:00,
2013-04-06 09:04:00,57.7,54.5,29.52,SSW,202,7.3,-999.0,89,-99.99,,,0.00,Acu-Link.com,2013-04-06 14:04:00,
2013-04-06 09:19:00,61.3,56.4,29.47,SSE,157,18.1,-999.0,84,-99.99,,,0.00,Acu-Link.com,2013-04-06 14:19:00,
2013-04-06 09:34:00,61.9,56.3,29.45,SSW,202,13.5,-999.0,82,-99.99,,,0.00,Acu-Link.com,2013-04-06 14:34:00,
2013-04-06 09:50:00,62.4,56.1,29.44,South,180,11.9,-999.0,80,-99.99,,,0.00,Acu-Link.com,2013-04-06 14:50:00,
2013-04-06 10:05:00,61.5,55.6,29.46,South,180,11.4,-999.0,81,-99.99,,,0.00,Acu-Link.com,2013-04-06 15:05:00,
2013-04-06 10:20:00,64.2,57.2,29.43,West,270,8.9,-999.0,78,-99.99,,,0.00,Acu-Link.com,2013-04-06 15:20:00,
2013-04-06 10:35:00,65.7,57.9,29.46,SSW,202,9.4,-999.0,76,-99.99,,,0.00,Acu-Link.com,2013-04-06 15:35:00,
2013-04-06 10:50:00,68.5,58.7,29.47,SSW,202,5.3,-999.0,71,-99.99,,,0.00,Acu-Link.com,2013-04-06 15:50:00,
2013-04-06 11:07:00,66.7,58.1,29.49,West,270,6.3,-999.0,74,-99.99,,,0.00,Acu-Link.com,2013-04-06 16:07:00,
2013-04-06 11:22:00,65.8,57.3,29.51,NW,315,4.7,-999.0,74,-99.99,,,0.00,Acu-Link.com,2013-04-06 16:22:00,
2013-04-06 11:37:00,64.8,56.7,29.52,West,270,2.2,-999.0,75,-99.99,,,0.00,Acu-Link.com,2013-04-06 16:37:00,
2013-04-06 11:52:00,65.5,56.6,29.51,West,270,7.8,-999.0,73,-99.99,,,0.00,Acu-Link.com,2013-04-06 16:52:00,
2013-04-06 12:07:00,64.6,51.7,29.52,NNW,337,4.2,-999.0,63,-99.99,,,0.00,Acu-Link.com,2013-04-06 17:07:00,
2013-04-06 12:23:00,66.7,53.3,29.53,WNW,292,3.7,-999.0,62,-99.99,,,0.00,Acu-Link.com,2013-04-06 17:23:00,
2013-04-06 12:38:00,62.8,50.4,29.53,NW,315,5.8,-999.0,64,-99.99,,,0.00,Acu-Link.com,2013-04-06 17:38:00,
2013-04-06 12:53:00,62.4,50.9,29.55,West,270,5.8,-999.0,66,-99.99,,,0.00,Acu-Link.com,2013-04-06 17:53:00,
2013-04-06 13:08:00,65.7,52.3,29.55,NW,315,10.9,-999.0,62,-99.99,,,0.00,Acu-Link.com,2013-04-06 18:08:00,
2013-04-06 14:09:00,70.0,53.6,29.55,NNW,337,9.9,-999.0,56,-99.99,,,0.00,Acu-Link.com,2013-04-06 19:09:00,
2013-04-06 14:24:00,70.2,53.8,29.56,WNW,292,8.3,-999.0,56,-99.99,,,0.00,Acu-Link.com,2013-04-06 19:24:00,
2013-04-06 14:55:00,70.9,53.4,29.55,NNW,337,15.5,-999.0,54,-99.99,,,0.00,Acu-Link.com,2013-04-06 19:55:00,
2013-04-06 15:10:00,71.2,52.7,29.56,NW,315,8.3,-999.0,52,-99.99,,,0.00,Acu-Link.com,2013-04-06 20:10:00,
2013-04-06 15:25:00,72.0,53.9,29.55,West,270,6.8,-999.0,53,-99.99,,,0.00,Acu-Link.com,2013-04-06 20:25:00,
2013-04-06 15:41:00,72.5,53.3,29.55,WNW,292,7.8,-999.0,51,-99.99,,,0.00,Acu-Link.com,2013-04-06 20:41:00,
2013-04-06 16:11:00,69.8,52.4,29.56,WNW,292,12.5,-999.0,54,-99.99,,,0.00,Acu-Link.com,2013-04-06 21:11:00,
2013-04-06 16:42:00,74.7,53.7,29.57,NW,315,11.9,-999.0,48,-99.99,,,0.00,Acu-Link.com,2013-04-06 21:42:00,
2013-04-06 16:57:00,69.8,50.8,29.58,NNW,337,9.4,-999.0,51,-99.99,,,0.00,Acu-Link.com,2013-04-06 21:57:00,
2013-04-06 17:12:00,70.2,50.7,29.58,NW,315,15.5,-999.0,50,-99.99,,,0.00,Acu-Link.com,2013-04-06 22:12:00,
2013-04-06 17:27:00,72.3,50.9,29.59,NNE,22,7.8,-999.0,47,-99.99,,,0.00,Acu-Link.com,2013-04-06 22:27:00,
2013-04-06 17:43:00,70.7,50.6,29.60,NNW,337,6.8,-999.0,49,-99.99,,,0.00,Acu-Link.com,2013-04-06 22:43:00,
2013-04-06 17:58:00,70.5,50.4,29.61,WNW,292,10.4,-999.0,49,-99.99,,,0.00,Acu-Link.com,2013-04-06 22:58:00,
2013-04-06 18:13:00,69.4,49.9,29.61,NW,315,8.3,-999.0,50,-99.99,,,0.00,Acu-Link.com,2013-04-06 23:13:00,
2013-04-06 18:44:00,68.2,49.9,29.63,WNW,292,6.3,-999.0,52,-99.99,,,0.00,Acu-Link.com,2013-04-06 23:44:00,
2013-04-06 19:14:00,66.7,49.0,29.63,NNW,337,7.3,-999.0,53,-99.99,,,0.00,Acu-Link.com,2013-04-07 00:14:00,
2013-04-06 19:29:00,65.7,49.1,29.63,WNW,292,3.7,-999.0,55,-99.99,,,0.00,Acu-Link.com,2013-04-07 00:29:00,
2013-04-06 19:44:00,64.8,48.7,29.64,WNW,292,2.2,-999.0,56,-99.99,,,0.00,Acu-Link.com,2013-04-07 00:44:00,
2013-04-06 20:00:00,63.0,48.0,29.64,NW,315,1.7,-999.0,58,-99.99,,,0.00,Acu-Link.com,2013-04-07 01:00:00,
2013-04-06 20:15:00,61.5,47.9,29.65,West,270,1.7,-999.0,61,-99.99,,,0.00,Acu-Link.com,2013-04-07 01:15:00,
2013-04-06 20:30:00,60.8,48.1,29.65,WNW,292,1.7,-999.0,63,-99.99,,,0.00,Acu-Link.com,2013-04-07 01:30:00,
2013-04-06 20:45:00,60.8,48.5,29.65,West,270,2.2,-999.0,64,-99.99,,,0.00,Acu-Link.com,2013-04-07 01:45:00,
2013-04-06 21:00:00,60.1,47.9,29.66,West,270,1.7,-999.0,64,-99.99,,,0.00,Acu-Link.com,2013-04-07 02:00:00,
2013-04-06 21:16:00,60.3,47.2,29.67,WNW,292,1.7,-999.0,62,-99.99,,,0.00,Acu-Link.com,2013-04-07 02:16:00,
2013-04-06 22:02:00,59.7,47.9,29.68,SW,225,2.7,-999.0,65,-99.99,,,0.00,Acu-Link.com,2013-04-07 03:02:00,
2013-04-06 22:17:00,59.2,48.2,29.69,West,270,2.2,-999.0,67,-99.99,,,0.00,Acu-Link.com,2013-04-07 03:17:00,
2013-04-06 22:47:00,59.7,47.5,29.69,SW,225,2.7,-999.0,64,-99.99,,,0.00,Acu-Link.com,2013-04-07 03:47:00,
2013-04-06 23:18:00,59.4,48.0,29.70,WSW,247,3.7,-999.0,66,-99.99,,,0.00,Acu-Link.com,2013-04-07 04:18:00,
2013-04-06 23:33:00,59.0,48.1,29.71,SSW,202,3.2,-999.0,67,-99.99,,,0.00,Acu-Link.com,2013-04-07 04:33:00,